LFRCLFRB

Guest
Details From LFRC - Cherbourg Maupertus
To LFRB - Brest Bretagne
Flight Number -
Tags generated
Created
Modified
Stats Distance 137 nm / 253 km
Max Altitude 9,000 ft / 2,743 m
Waypoints 3
Social Downloads 1
Likes 0
Share VATSIM

Download

Looking for another format? Having issues loading an existing format? Contact us
Advertisement - Login to hide

Notes

Basic altitude profile: - Ascent Rate: 2500ft/min - Ascent Speed: 250kts - Cruise Altitude: 35000ft - Cruise Speed: 420kts - Descent Rate: 1500ft/min - Descent Speed: 250kts Options: - Use NATs: yes - Use PACOTS: yes - Use low airways: yes - Use high airways: no

Route

LFRC SOMEN LFRB

ID Type Via Altitude Latitude Longitude Leg Dist Tot Dist Heading (true) Name
O LFRC APT - 0 ft / 0 m 49.65015˚ -1.47026˚ - 0 nm - Cherbourg Maupertus
SOMEN FIX - 9,000 ft / 2,743 m 48.85000˚ -3.55000˚ 94 nm 94 nm 240° / 239° -
O LFRB APT - 0 ft / 0 m 48.44938˚ -4.41823˚ 42 nm 136 nm 235° / 235° Brest Bretagne

Altitude Profile

Advertisement - Login to hide

LFRC

Details ICAO LFRC (CER)
Name Cherbourg Maupertus
Region France
Timezone Europe/Paris (UTC+2.0)
Stats Elevation 459 ft / 140 m (AMSL)
Location 49.650151° -1.470264°
Runways 1
Magnetic Variation 0.645° W

METAR

LFRC 220430Z AUTO 30005KT 3400 BR NSC 11/10 Q1014

Decode

TAF

Not found

Departure Runways

ID Width Length Bearing (true) Bearing (mag) Surface Threshold Offset Overrun Length
10 148 ft / 45 m 7,985 ft / 2,434 m 100.78° 101.42° Asphalt 0 ft / 0 m 0 ft / 0 m
28 148 ft / 45 m 7,985 ft / 2,434 m 280.80° 281.44° Asphalt 0 ft / 0 m 0 ft / 0 m

LFRB

Details ICAO LFRB (BES)
Name Brest Bretagne
Region France
Timezone Europe/Paris (UTC+2.0)
Stats Elevation 325 ft / 99 m (AMSL)
Location 48.449376° -4.418232°
Runways 2
Magnetic Variation 1.514° W

METAR

LFRB 220430Z AUTO 35005KT 3000 BR NSC 09/09 Q1015 TEMPO 0300 FG VV///

Decode

TAF

TAF LFRB 212300Z 2200/2306 01003KT 2000 BR NSC TEMPO 2200/2208 0300 FG VV/// BECMG 2208/2210 9999 NSW SCT030 TEMPO 2300/2306 4000 MIFG

Decode

Destination Runways

ID Width Length Bearing (true) Bearing (mag) Surface Threshold Offset Overrun Length
07L 62 ft / 19 m 2,518 ft / 768 m 71.21° 72.72° Asphalt 131 ft / 40 m 0 ft / 0 m
07R 148 ft / 45 m 10,153 ft / 3,095 m 71.16° 72.67° Asphalt 0 ft / 0 m 0 ft / 0 m
25L 148 ft / 45 m 10,153 ft / 3,095 m 251.19° 252.70° Asphalt 984 ft / 300 m 0 ft / 0 m
25R 62 ft / 19 m 2,518 ft / 768 m 251.22° 252.73° Asphalt 112 ft / 34 m 0 ft / 0 m

Approach Navaids

Runway Type Ident Frequency Range Bearing (true) Bearing (mag) Slope Elevation
25L Localiser BG 109.90 MHz 27 nm / 50 km 251.20° 252.71° - 325 ft / 99 m (AMSL)
25L Glidescope BG 109.90 MHz 27 nm / 50 km 251.20° 252.71° 3.00° 325 ft / 99 m (AMSL)
25L DME BG 109.90 MHz 27 nm / 50 km - - - 325 ft / 99 m (AMSL)

Popular Alternatives